Theta_e
319 317 318 318 317 318 319 320 319 319 319 321 322 323 324 325 324 323 322 324 323 320 319 320 319 317 316 316 315 314 317 317 317 315 317 319 323 323 327 325 324 325 327 325 322 328 324 324 324 326 326 324 323 321 323 324 324 322 322 321 320 319 320 324 323 321 321 321 318 318 320 325 327 324 323 324 323 324 327 328 328 328 327 328 330
317 315 317 317 317 317 318 318 320 319 318 320 321 322 323 323 325 321 320 322 322 321 321 318 315 318 318 316 314 313 316 315 314 314 316 318 319 323 325 323 323 324 327 324 324 326 324 323 325 326 326 325 324 324 323 327 324 322 321 319 320 318 320 324 322 320 316 316 318 318 317 320 323 322 323 325 326 325 325 327 328 327 328 329 329
314 314 315 317 316 317 317 317 317 318 319 320 319 320 320 321 321 319 319 319 318 319 319 317 314 315 314 312 315 311 312 314 314 316 317 315 314 315 316 319 321 322 325 326 322 324 324 323 325 326 326 326 324 323 325 326 324 322 321 320 319 322 323 324 322 319 318 319 317 316 312 313 316 318 319 323 325 325 326 327 328 329 328 329 328
314 314 315 316 316 317 317 317 316 317 319 318 318 319 319 320 318 317 317 316 316 319 319 316 316 314 314 313 312 312 314 316 314 314 314 314 314 314 315 313 314 316 322 325 323 323 323 324 325 325 325 327 324 322 323 324 324 324 322 320 321 320 320 320 323 320 319 318 315 313 311 311 311 312 315 320 325 326 325 325 328 328 329 329 328
315 314 315 315 315 316 318 318 317 318 318 319 318 318 319 318 317 317 315 315 316 320 317 317 316 314 314 314 315 314 314 312 312 312 313 317 315 313 313 313 314 315 316 320 324 324 323 322 322 322 323 324 323 322 322 323 322 323 324 322 322 322 319 320 322 323 320 322 319 313 310 310 309 314 314 320 323 325 325 325 328 328 328 328 328
315 313 313 314 315 315 315 318 317 318 318 319 319 318 318 317 316 315 314 315 316 316 316 317 316 314 313 312 310 309 310 309 309 310 310 310 311 311 312 312 312 312 313 317 322 324 322 320 320 320 322 323 322 321 322 321 322 323 324 325 324 323 323 322 322 323 321 321 319 318 314 312 312 317 315 312 318 321 323 325 326 326 326 327 326
311 313 314 314 314 315 316 318 318 318 319 319 319 318 318 317 316 315 315 315 315 315 316 317 314 314 314 313 312 311 310 307 306 307 309 310 310 311 310 311 311 312 313 314 317 320 317 318 319 320 321 321 323 319 320 320 322 324 325 326 325 324 324 321 322 322 323 322 322 322 323 322 321 316 312 311 313 316 319 319 322 324 325 325 326
313 313 314 315 315 317 317 319 319 319 319 320 319 318 318 317 315 315 316 316 314 315 315 316 314 313 311 311 312 310 311 310 309 309 309 312 310 309 309 309 310 311 312 313 315 317 315 315 316 317 317 318 320 318 320 321 321 321 321 322 323 323 324 323 322 323 320 319 322 321 320 319 320 318 316 315 311 312 313 318 319 318 317 316 319
313 313 313 315 315 316 317 318 317 319 320 321 320 318 317 317 316 315 314 313 312 313 314 314 315 313 312 312 311 309 310 311 311 312 310 309 308 307 308 308 309 309 310 312 312 315 317 314 314 314 315 316 318 315 314 314 315 315 316 317 318 317 319 322 323 321 320 319 319 319 319 317 315 315 316 316 313 311 309 310 311 316 313 312 314
313 313 314 315 315 316 316 317 318 318 319 319 320 319 318 318 316 314 312 312 311 311 312 312 313 314 311 310 310 311 312 309 309 308 307 307 307 306 307 307 308 309 309 310 311 312 312 313 312 312 313 316 315 312 311 311 311 310 311 312 313 312 312 315 317 316 318 320 320 318 317 316 313 313 312 312 311 313 309 306 309 306 305 308 311
312 313 313 313 314 315 316 318 318 316 318 320 319 319 319 319 317 315 314 313 312 311 311 312 312 312 312 311 311 311 310 310 310 309 307 307 307 305 306 306 306 307 309 310 310 311 313 315 312 312 315 317 313 310 310 309 309 309 309 309 309 309 309 309 310 311 314 315 316 317 317 315 312 310 308 309 309 307 309 309 307 307 306 306 309
312 312 311 312 313 313 314 316 317 316 318 318 319 320 320 319 316 314 312 311 310 310 310 311 312 312 312 312 312 312 311 311 309 308 306 306 305 306 305 305 305 306 307 308 309 310 311 310 312 310 311 309 309 309 309 309 309 309 309 309 308 308 309 308 307 307 307 307 307 308 309 309 309 310 309 309 309 308 309 306 309 310 305 306 308
312 311 311 312 314 314 315 316 315 315 318 318 319 319 318 318 316 315 312 311 310 309 310 311 312 312 312 313 313 313 312 311 309 308 306 306 305 305 305 305 304 307 306 307 308 308 310 309 309 309 309 310 309 309 309 309 309 309 308 307 307 307 306 307 306 305 306 307 306 306 307 307 306 307 307 306 305 305 306 304 304 304 305 306 306
309 309 309 310 313 314 315 315 315 316 317 318 318 319 318 318 317 315 312 312 311 310 310 310 311 312 313 314 314 315 312 312 311 310 308 308 306 305 305 305 304 304 305 306 306 308 308 309 309 308 308 308 309 308 308 309 308 308 308 307 306 306 306 306 305 305 305 305 306 306 306 306 306 306 306 306 305 305 303 303 303 301 303 303 304
308 308 307 308 309 310 312 314 315 317 318 318 317 318 318 317 315 314 314 314 313 312 311 311 311 312 313 314 315 314 313 313 312 312 309 308 306 305 304 304 305 304 305 306 309 307 307 307 308 307 308 308 309 310 310 308 309 308 308 307 307 306 306 306 305 306 306 305 306 306 306 306 305 305 306 305 306 306 305 304 301 301 301 301 302
309 309 310 311 309 309 312 314 315 316 317 318 318 317 316 315 314 316 317 315 315 314 313 312 313 313 313 313 314 315 315 314 313 312 309 309 307 307 306 305 304 305 305 307 306 307 305 306 307 306 307 307 308 307 307 307 307 307 307 307 307 308 305 305 304 305 304 305 305 305 306 304 305 306 306 306 306 305 305 304 302 300 300 298 300
308 309 310 311 310 310 310 312 313 314 315 317 318 316 315 314 314 315 316 316 315 314 314 314 314 314 313 313 313 314 314 313 313 311 309 309 308 307 308 306 306 306 307 309 306 306 305 307 305 306 306 307 307 307 306 306 307 308 306 305 305 305 306 304 304 304 303 304 304 305 304 304 305 305 306 306 305 305 305 305 305 304 300 299 297
308 308 307 308 308 308 310 311 314 315 315 316 316 314 314 315 316 317 317 316 316 315 314 314 314 314 313 313 314 314 314 314 314 312 311 311 310 309 308 308 308 309 309 311 307 307 306 312 305 305 305 306 306 306 306 306 306 306 305 305 305 306 305 305 306 304 303 305 304 304 304 304 304 304 304 305 305 304 305 305 304 303 305 302 299
307 307 306 306 306 307 309 310 312 313 315 316 315 314 316 317 318 318 317 316 316 315 314 314 314 314 314 314 314 314 315 315 315 314 313 313 312 310 308 309 308 309 311 310 307 307 306 306 306 305 306 307 306 306 307 306 306 306 307 305 305 305 305 304 305 305 305 305 304 303 303 304 304 303 303 304 305 305 304 304 304 304 304 304 302
306 305 306 306 306 306 307 310 311 311 312 312 313 314 315 316 316 316 316 315 314 314 314 313 315 315 315 315 314 314 314 315 315 314 313 313 311 311 310 309 310 311 309 308 307 307 307 306 306 306 306 306 306 306 306 305 304 305 306 305 304 304 305 306 305 305 304 304 304 303 303 303 303 303 303 303 303 303 303 303 303 303 302 302 302
303 303 304 306 305 306 306 307 308 309 310 312 313 313 313 315 315 315 314 314 313 314 314 313 314 315 315 313 314 314 314 315 314 314 313 313 313 313 311 310 310 310 309 309 308 307 307 307 306 308 307 306 306 306 306 305 306 305 304 304 304 304 304 304 306 304 304 304 304 303 303 303 303 303 302 302 302 302 302 303 302 302 302 302 302
302 303 304 304 305 305 306 308 308 309 309 310 310 312 312 312 313 313 312 312 312 313 314 313 313 314 314 314 313 313 314 313 313 313 313 313 313 312 311 310 309 309 309 309 309 309 309 308 307 307 307 306 307 307 306 306 306 305 306 306 304 304 304 303 304 304 304 305 304 303 303 302 302 302 302 301 301 301 301 301 301 301 301 301 301
303 303 303 303 304 304 306 306 306 306 306 307 308 311 312 312 312 312 313 312 312 312 313 313 313 313 312 313 313 312 312 312 313 313 313 313 313 312 313 311 310 310 310 310 311 310 310 310 309 309 309 309 308 308 306 306 306 306 306 306 306 304 305 304 304 304 303 303 304 304 303 303 303 302 302 302 302 301 300 300 300 300 300 300 299
302 302 302 302 303 305 307 307 307 306 305 305 305 307 309 310 311 310 311 310 311 312 312 312 312 312 313 313 312 312 312 313 313 312 312 312 312 312 313 314 312 311 310 311 312 312 312 312 312 311 311 310 309 309 308 307 307 307 306 306 306 305 305 305 305 304 303 304 304 303 303 303 303 302 301 301 301 300 300 299 299 299 299 298 299
303 303 302 302 303 304 304 304 304 304 304 303 305 306 308 309 309 310 310 310 311 311 312 312 311 311 312 312 311 311 312 312 312 312 312 313 313 314 314 315 314 313 312 312 313 313 313 313 313 312 311 310 310 310 309 308 307 307 307 307 306 306 306 306 305 304 305 304 304 305 303 303 302 302 301 301 300 299 298 299 298 298 298 298 297
301 300 301 302 301 302 302 302 303 302 303 304 305 307 309 310 310 310 310 310 310 310 312 312 311 310 310 310 310 310 311 312 312 312 312 313 314 314 314 315 315 314 313 313 313 313 314 314 314 313 312 312 312 311 309 310 309 308 307 307 307 307 306 306 306 305 305 305 305 304 304 304 303 303 302 301 299 298 297 298 297 297 296 295 295
300 300 299 299 300 300 300 300 300 300 301 302 304 307 308 309 311 312 312 311 309 310 310 311 310 310 310 309 309 310 310 311 312 312 313 313 313 313 313 313 314 314 313 312 312 313 313 313 314 314 314 314 313 311 310 310 310 310 309 308 307 307 307 306 306 306 305 305 305 305 305 305 304 303 302 301 299 298 298 297 298 297 295 295 295
297 297 298 298 297 297 298 298 299 299 299 300 302 305 307 309 309 310 311 309 309 309 309 309 309 308 308 308 309 309 310 311 311 311 311 311 311 312 313 313 314 313 313 313 313 313 312 313 313 313 314 314 313 312 312 311 311 311 310 309 308 307 307 307 307 306 306 306 306 305 306 306 305 304 304 302 301 299 298 298 297 296 295 295 295
294 293 294 295 295 295 296 297 297 298 299 299 300 300 302 304 306 308 308 308 308 308 308 307 306 307 307 307 308 308 309 309 309 310 309 310 311 311 312 313 313 313 314 314 313 313 313 312 311 311 312 312 312 312 313 312 311 311 310 309 309 308 307 307 306 306 307 307 307 306 306 306 307 307 304 303 302 300 298 297 297 296 296 295 294
292 292 292 292 293 293 293 295 294 295 296 297 298 298 298 300 302 304 305 305 308 307 308 306 306 306 305 306 307 307 308 307 308 308 309 308 309 311 310 309 309 310 310 310 311 311 311 311 311 311 311 311 311 312 311 306 307 312 310 310 309 309 308 308 308 307 307 307 307 307 308 309 307 306 302 298 296 296 298 299 297 296 296 295 295
293 293 293 293 294 293 293 292 292 293 294 295 295 295 297 297 298 300 302 303 306 306 306 306 306 305 305 306 306 307 306 307 306 307 307 308 309 310 310 310 309 309 309 310 309 309 309 310 310 310 310 310 311 311 305 301 300 301 309 310 309 309 308 308 308 308 307 307 306 306 306 308 307 305 302 296 294 294 294 295 295 296 297 296 294
294 294 295 295 295 295 294 292 292 292 293 293 294 294 295 295 295 296 297 299 302 302 303 303 303 302 302 303 303 305 305 306 305 306 305 306 306 307 308 308 308 308 309 308 307 308 308 309 309 309 309 310 311 307 301 299 298 297 301 309 309 309 309 308 308 308 308 308 308 307 305 307 306 305 302 298 295 293 293 293 293 293 293 293 294
294 294 295 295 295 295 295 295 294 293 294 294 294 294 294 294 294 295 295 294 295 297 297 299 299 300 301 301 301 302 302 302 303 303 302 301 303 304 304 305 307 309 308 307 309 307 307 307 307 308 309 310 309 303 296 296 295 295 295 301 309 309 309 309 308 309 309 308 307 307 305 305 304 305 302 297 296 296 294 293 293 293 293 291 289
293 293 294 295 295 294 295 295 295 294 295 294 295 295 294 294 294 294 293 292 293 292 293 295 295 296 298 298 299 301 300 300 299 299 300 300 300 300 299 299 300 302 303 304 306 307 307 306 307 307 307 306 305 301 294 294 293 293 293 296 306 307 307 308 308 308 308 307 307 306 304 303 302 302 299 297 297 297 297 296 296 296 296 295 292
289 289 290 291 294 295 296 297 297 298 297 296 296 295 295 295 295 295 294 294 294 293 294 294 294 296 296 294 296 297 297 297 297 297 297 297 297 294 296 296 297 298 298 299 299 300 301 302 302 302 303 303 303 295 291 292 292 292 292 293 303 303 304 304 304 304 305 305 305 305 304 302 301 300 299 297 297 296 296 296 295 295 294 294 294
289 288 290 290 292 294 296 298 298 297 297 297 296 296 296 295 296 297 296 296 295 297 296 296 296 296 296 297 296 295 296 295 294 294 295 295 295 296 296 295 294 293 293 294 294 295 295 295 295 296 297 297 297 292 291 292 293 292 292 298 300 301 300 298 297 298 300 301 302 303 302 301 300 300 298 294 296 298 297 296 295 293 292 293 293
289 289 289 290 291 293 296 296 294 294 294 294 295 296 295 295 295 295 293 294 294 295 295 295 296 296 298 297 297 298 297 296 294 295 294 295 295 294 294 294 294 293 295 296 295 294 292 292 294 295 297 295 294 293 291 291 293 291 295 297 298 297 296 295 295 295 296 298 301 300 300 299 299 298 294 292 293 296 298 297 295 292 292 292 292
286 287 288 288 289 290 291 291 291 292 292 292 293 295 295 294 295 295 294 295 294 294 295 295 295 295 295 295 295 296 297 297 295 296 296 296 295 295 295 296 296 296 297 296 295 292 290 292 294 295 297 296 294 292 292 292 292 293 296 297 297 296 294 294 293 293 293 295 299 303 300 297 295 295 291 291 292 296 296 294 293 291 291 290 290
286 286 287 287 288 290 291 289 289 290 290 290 291 292 293 293 294 295 295 295 295 295 296 297 298 298 297 295 296 296 296 296 295 296 296 295 296 297 295 295 295 297 298 296 294 292 290 289 290 292 297 291 290 292 292 292 292 293 296 297 297 296 294 292 292 292 292 292 293 296 296 295 295 293 290 290 291 294 294 294 293 292 290 289 289
287 287 287 289 290 287 287 287 287 288 288 288 289 289 292 292 293 292 293 293 295 297 299 299 299 299 300 298 297 298 296 296 296 295 295 295 295 295 295 294 293 294 294 292 292 290 290 288 288 288 289 290 291 290 292 292 293 293 294 297 297 296 293 291 292 292 292 292 292 293 292 289 289 289 289 289 289 290 293 291 292 291 290 290 289
288 289 292 288 287 286 286 287 287 288 287 288 289 288 289 290 290 289 291 292 293 294 295 295 296 297 298 299 298 299 298 298 297 297 296 296 295 294 294 294 294 292 292 291 290 289 289 287 287 287 287 289 293 290 291 291 292 293 293 294 296 295 293 292 291 291 290 290 290 291 291 290 288 289 289 289 289 289 289 291 290 290 291 290 288
289 290 290 288 287 287 287 287 287 287 289 288 288 289 290 288 288 288 290 291 291 291 292 292 293 294 295 295 296 296 297 299 298 297 296 296 295 294 295 294 293 293 292 290 289 289 288 287 286 286 288 286 291 294 291 292 292 292 292 292 294 293 293 292 290 289 289 289 290 290 290 289 288 288 288 288 289 289 289 292 290 288 287 287 290
286 286 288 288 287 287 287 287 288 288 288 287 287 288 288 289 288 290 290 290 291 290 290 291 292 292 294 294 295 295 296 297 297 297 297 297 295 295 295 295 294 293 292 291 289 288 289 287 287 286 286 286 287 291 291 291 290 290 290 291 291 291 290 294 292 290 290 290 290 290 291 289 288 288 288 288 288 288 289 289 287 287 286 287 289
285 285 286 288 286 287 287 287 288 288 288 288 287 289 289 289 289 291 289 290 291 291 291 290 291 291 292 293 294 295 295 296 296 296 296 296 295 295 294 295 294 294 292 290 287 287 287 288 288 287 287 286 286 288 290 290 290 289 289 289 289 289 290 293 292 291 290 290 290 291 290 288 288 288 288 288 287 288 288 287 287 287 287 288 289
284 285 286 286 285 285 286 286 287 287 288 288 287 287 289 289 290 290 290 290 291 291 291 291 291 291 290 291 292 293 294 294 294 295 295 294 294 294 294 291 292 291 292 292 288 288 290 288 286 287 286 286 286 287 288 290 289 289 289 289 289 289 289 289 291 291 291 291 289 288 288 288 288 288 288 288 288 287 286 287 287 288 289 288 288
284 284 285 286 285 285 285 285 286 287 287 288 288 287 287 289 290 290 290 290 290 291 291 292 292 291 291 290 290 290 290 291 292 293 294 293 294 294 294 292 292 292 292 292 289 288 288 287 287 285 285 285 286 287 288 289 291 290 289 289 289 289 290 290 291 291 289 288 288 288 288 288 288 289 289 289 288 288 287 287 287 287 287 287 287
283 283 285 284 284 284 284 285 285 286 287 288 288 288 289 289 289 290 290 290 290 290 291 291 292 292 292 292 291 291 290 290 290 290 291 293 291 293 292 292 293 292 291 290 289 289 289 288 287 286 285 285 285 286 287 287 288 289 290 290 290 290 289 289 290 290 290 290 289 289 288 287 287 287 287 286 287 287 287 287 286 286 286 286 287
283 283 284 283 283 282 283 284 284 285 286 287 287 287 288 288 289 289 289 289 289 290 290 290 291 291 291 292 292 290 291 290 288 290 290 289 289 291 292 292 292 292 291 290 290 289 290 290 288 286 285 285 285 285 286 287 288 288 289 289 290 290 289 289 288 288 289 290 289 288 288 288 287 287 286 286 285 285 285 284 286 285 286 285 286
282 282 283 282 282 283 283 283 284 285 285 286 286 287 287 287 288 288 288 288 288 289 289 289 289 288 289 291 291 292 292 291 289 286 285 286 289 290 291 289 290 291 295 294 291 291 291 291 289 287 286 286 285 286 287 287 288 288 288 288 287 287 287 288 289 288 288 288 287 287 286 286 285 283 283 283 284 284 283 283 284 285 285 285 285
283 283 283 283 284 283 283 283 284 284 284 284 285 285 286 287 287 288 288 287 288 288 288 288 288 288 289 288 289 290 290 290 290 289 288 286 285 287 287 289 290 290 291 291 291 291 291 290 290 289 289 288 288 288 287 287 287 288 288 288 287 287 288 288 288 287 288 286 285 284 284 284 283 283 282 281 281 280 280 281 282 282 282 284 284
284 284 284 284 284 285 285 285 285 285 285 285 285 285 286 286 286 287 287 287 287 287 287 288 288 288 288 289 288 287 287 287 289 289 289 288 288 288 287 287 288 288 289 290 289 290 290 290 292 289 288 288 287 287 287 288 288 288 288 287 287 287 288 287 287 287 287 286 285 284 281 281 280 280 280 282 279 279 280 280 282 281 282 282 282
Wind_Speed
2 3 4 4 3 2 3 4 4 4 4 4 5 6 5 7 7 7 5 6 6 6 5 5 5 4 4 4 4 1 2 3 3 2 1 1 1 2 2 2 2 2 3 4 4 4 3 3 2 2 3 1 1 2 4 3 4 3 2 2 1 4 2 1 2 2 4 2 3 3 4 4 3 3 3 2 3 2 2 3 2 2 1 2 2
3 3 4 4 3 2 2 3 5 6 4 5 7 8 7 7 8 7 5 6 6 5 5 4 3 5 5 5 4 3 3 3 3 2 2 3 3 2 2 2 2 2 3 3 2 3 3 3 3 2 2 2 1 2 2 4 5 5 4 3 2 2 2 2 1 1 2 3 3 1 2 3 3 3 3 3 3 3 2 2 2 4 5 4 2
3 3 4 5 5 4 4 3 3 4 6 6 5 5 5 6 6 7 6 6 5 5 6 5 3 3 4 4 5 4 2 2 3 2 2 5 4 3 2 2 3 3 3 3 3 2 2 3 3 2 2 2 1 2 4 4 5 4 2 3 1 3 2 0 0 2 3 2 2 4 0 1 2 1 2 2 3 3 2 1 4 5 5 4 4
8 7 7 6 6 6 4 4 4 4 5 5 5 7 6 6 6 6 6 5 6 5 5 5 7 7 7 7 6 5 4 2 4 4 4 5 5 4 4 2 2 3 3 4 3 3 3 3 4 3 3 2 2 3 3 3 3 2 3 2 4 2 1 1 1 0 2 5 2 1 1 1 1 3 2 3 2 3 4 2 2 1 2 2 1
7 7 7 8 7 7 7 5 4 5 5 6 6 7 6 7 7 8 8 8 6 6 8 8 8 8 6 7 6 5 4 5 5 5 4 3 3 5 4 3 3 3 2 2 3 4 3 3 3 3 2 1 1 2 2 2 2 1 3 2 1 3 2 2 2 0 1 1 5 4 2 1 2 1 1 1 2 2 3 3 2 1 1 1 1
5 4 3 4 4 4 4 5 6 5 5 5 5 5 6 7 7 6 6 6 7 7 9 8 8 9 7 7 6 4 4 3 3 3 2 3 2 1 4 5 4 3 4 3 3 3 2 2 3 3 2 2 1 1 2 2 2 2 2 3 2 1 2 3 2 1 2 4 3 1 1 2 4 2 2 2 1 3 4 4 3 4 3 2 1
3 4 4 6 5 6 5 7 7 6 4 3 4 5 6 7 7 7 7 6 6 7 7 8 8 8 9 8 7 7 7 1 1 1 3 2 2 4 3 4 5 4 4 3 3 3 3 3 3 3 3 3 3 3 3 2 2 1 1 3 2 2 2 2 3 2 2 2 3 4 4 3 3 3 2 2 2 3 4 3 3 4 4 5 5
6 6 6 6 7 8 10 8 7 7 5 4 4 4 6 6 5 5 5 6 5 6 6 7 9 7 7 6 5 6 5 5 3 3 2 2 5 4 4 5 5 4 4 4 3 3 4 5 4 4 4 3 3 4 3 3 3 2 2 1 2 1 2 3 3 4 2 1 2 2 3 3 2 3 2 1 2 5 4 4 3 5 7 7 5
6 7 9 10 10 8 5 5 4 5 6 7 4 3 6 6 4 4 3 3 4 4 5 4 8 8 8 7 6 2 4 4 2 2 4 2 5 3 5 4 5 4 4 4 3 3 3 4 4 5 5 4 4 5 4 3 4 4 4 3 3 2 1 2 3 2 3 2 2 1 3 4 4 5 3 3 3 4 5 2 3 2 5 9 8
6 7 6 7 6 4 3 3 4 4 2 5 10 11 9 3 1 3 4 4 4 4 3 4 6 7 8 6 7 5 4 4 3 4 3 3 5 3 4 5 5 5 4 4 4 4 4 4 5 5 5 5 4 5 5 5 5 5 4 4 3 5 3 3 3 2 2 2 2 3 2 2 4 4 5 3 5 6 6 2 2 4 8 5 6
6 6 5 5 4 4 4 6 4 3 5 8 9 10 10 10 5 5 5 4 3 4 4 5 5 6 7 7 7 7 5 6 5 3 3 4 5 3 4 4 4 5 4 4 4 3 4 4 5 5 4 4 5 5 5 5 4 5 4 5 5 5 4 5 6 5 4 4 3 2 4 4 5 4 2 2 3 4 4 4 3 3 3 6 6
6 6 5 6 5 4 4 4 4 4 6 8 8 9 10 7 6 4 2 3 3 2 3 5 7 6 6 7 7 7 7 6 5 4 4 5 4 4 3 5 4 5 4 4 4 3 4 5 4 4 5 5 5 4 4 5 5 5 5 5 5 5 5 6 6 7 7 6 6 5 5 4 4 4 3 2 5 4 5 5 5 1 2 3 1
6 4 5 6 6 7 6 5 5 5 5 7 9 9 8 8 8 9 5 4 4 1 4 6 7 7 8 7 6 6 5 5 4 4 3 5 5 4 4 5 4 5 4 3 3 3 3 5 4 4 4 3 4 4 3 4 4 5 5 5 5 5 5 6 7 6 6 7 6 5 5 5 4 2 3 5 4 5 6 5 1 1 3 3 4
6 7 8 3 3 5 5 5 5 5 5 6 8 9 8 8 7 5 10 8 5 3 1 1 3 6 6 7 6 6 6 5 4 5 3 3 4 4 5 4 5 3 2 3 4 4 3 2 2 3 2 3 3 4 4 3 4 6 5 5 5 5 6 8 8 7 7 6 5 7 6 6 5 4 4 5 4 5 4 4 4 3 3 3 3
7 7 6 7 7 1 4 6 5 6 7 8 7 9 8 3 10 13 9 4 6 5 4 2 1 1 2 5 6 6 7 6 5 3 4 4 3 5 4 3 5 2 3 1 4 4 4 3 1 2 2 2 2 3 3 4 4 5 5 6 5 4 6 7 6 7 7 7 7 7 6 6 5 4 5 5 4 5 5 3 4 6 4 5 4
5 6 6 3 8 5 4 6 7 7 7 7 8 6 4 8 12 12 8 3 3 4 5 7 5 3 1 4 6 6 5 5 4 3 2 2 4 4 4 3 3 3 2 2 3 3 3 4 3 2 2 1 1 2 2 3 3 5 5 5 5 2 6 7 6 7 7 7 7 5 7 5 4 5 5 5 5 4 5 4 5 5 7 3 2
8 2 5 6 5 6 2 4 5 5 6 7 7 3 7 9 10 13 4 2 7 7 6 4 5 5 5 3 4 5 6 6 6 5 4 2 4 2 3 2 2 2 3 2 3 3 3 3 3 2 3 4 3 3 3 3 3 3 4 4 4 3 5 6 5 7 5 6 6 6 6 5 5 4 4 5 5 4 4 4 4 5 5 6 3
2 3 1 0 2 2 2 3 6 8 7 6 4 5 8 11 14 15 15 12 6 4 3 7 9 7 5 4 5 6 7 5 5 5 4 5 5 3 2 3 3 3 3 3 3 3 2 2 3 1 2 2 3 3 3 3 3 4 4 4 3 4 6 4 5 6 5 5 6 5 5 6 4 5 5 4 4 4 5 5 5 4 4 6 4
4 1 2 1 0 0 3 5 4 5 6 7 6 8 10 13 14 13 14 11 8 5 3 2 3 5 7 8 7 5 5 7 7 8 6 5 6 4 4 4 3 3 3 3 3 3 2 2 3 2 1 1 1 1 1 2 3 4 3 4 3 4 5 5 3 5 3 5 6 6 5 5 4 6 5 5 4 5 6 5 5 5 5 5 6
3 2 1 2 4 3 1 4 6 5 5 4 7 7 11 12 12 11 7 3 3 4 5 4 5 6 6 4 5 5 3 4 6 7 8 5 6 7 6 4 5 4 3 3 3 3 2 2 2 2 2 2 1 1 1 2 3 3 3 3 3 3 5 5 4 3 4 5 6 6 5 5 5 6 6 5 5 5 5 6 5 6 5 3 4
2 2 2 3 3 3 4 3 2 3 4 6 7 9 9 9 11 11 11 7 6 6 4 3 3 4 5 7 6 5 6 4 3 5 7 5 4 6 5 2 2 2 3 4 3 2 1 1 0 0 0 1 2 1 1 1 2 3 3 3 2 3 5 2 3 4 3 5 5 5 5 4 3 7 5 5 5 5 5 6 4 5 5 3 4
3 3 3 3 3 4 4 4 3 4 4 6 6 7 8 7 7 7 4 5 5 6 6 4 3 4 7 6 4 3 3 3 4 4 4 4 6 5 5 5 3 2 2 4 5 3 3 3 4 4 3 2 1 1 1 2 3 3 2 2 3 4 4 3 2 2 2 3 5 6 5 4 4 6 5 5 5 4 5 5 4 5 5 4 1
4 4 3 2 2 3 3 4 4 3 3 4 5 6 7 7 6 6 6 5 4 4 4 4 4 4 5 4 3 3 3 4 5 4 4 4 4 5 5 7 5 4 4 4 4 4 4 3 1 0 1 2 2 2 2 3 3 4 4 3 3 4 5 5 3 4 2 2 4 4 5 4 4 6 5 4 4 5 4 6 5 4 5 4 3
2 3 3 3 2 3 4 5 5 4 4 3 3 3 4 4 4 3 3 3 3 3 4 4 4 4 3 2 1 2 4 5 6 6 6 5 3 3 4 6 6 6 6 4 4 5 4 3 1 1 0 3 4 4 3 3 4 4 5 5 5 4 4 4 5 6 5 5 5 4 4 4 4 6 5 5 4 5 5 5 5 4 5 4 3
2 5 4 3 3 3 3 3 4 3 4 3 4 3 4 4 4 4 4 4 4 4 4 4 5 6 4 4 3 4 6 7 7 6 7 6 6 7 5 6 6 6 4 3 2 2 2 3 3 0 1 2 2 3 4 5 4 5 5 5 5 5 5 5 5 5 5 6 6 6 6 5 5 6 4 5 5 6 4 5 5 3 4 3 3
3 2 1 2 1 1 2 3 3 3 3 4 4 5 6 6 5 5 5 4 4 3 4 5 5 6 5 4 5 5 7 7 7 7 8 7 7 5 6 6 7 8 4 4 4 1 1 3 3 1 0 2 3 1 1 4 8 6 4 3 4 5 5 5 5 5 5 5 6 6 6 6 6 7 6 5 5 7 5 6 6 4 4 4 5
4 3 4 3 2 2 2 2 3 3 2 3 4 5 5 6 6 6 5 5 4 5 4 5 5 5 5 4 5 6 6 7 7 7 6 6 6 6 6 6 6 9 8 6 3 3 3 4 5 4 4 3 2 2 3 5 7 8 7 7 6 5 5 5 5 6 5 5 5 5 6 7 7 6 7 7 6 6 6 6 6 7 4 5 5
6 6 6 5 6 6 6 6 6 5 3 4 4 4 5 6 7 5 5 5 4 4 4 4 4 4 4 5 5 5 6 6 5 5 5 4 5 6 7 7 7 8 7 6 6 5 2 5 4 3 3 4 4 4 4 5 6 8 8 7 7 6 6 6 5 5 4 6 6 6 6 6 7 7 7 7 7 6 4 5 4 6 5 6 4
7 6 6 6 6 6 7 8 7 7 8 7 5 4 3 3 3 4 5 6 5 5 4 4 3 4 3 3 3 3 2 2 4 4 4 4 5 5 5 5 4 6 7 8 8 7 5 6 4 3 4 4 5 6 6 7 9 9 7 6 5 6 5 6 6 5 6 6 6 6 6 6 7 6 7 7 6 7 6 5 3 4 5 6 4
7 6 5 5 5 6 6 7 8 9 10 9 8 7 6 3 2 2 3 4 6 5 5 4 4 4 3 2 3 3 3 2 2 3 3 3 4 4 5 2 2 3 3 2 3 2 4 4 4 4 4 4 6 6 7 11 8 6 6 5 4 5 6 6 6 6 5 6 7 6 6 8 8 7 8 8 9 8 6 6 7 6 6 5 4
7 8 7 7 7 8 8 9 8 8 8 7 6 6 6 5 4 2 1 1 2 4 4 5 5 3 3 4 4 4 3 3 2 1 2 4 4 4 4 4 4 4 3 3 2 3 5 5 5 5 5 6 6 6 7 6 9 9 5 5 5 6 5 5 6 6 7 7 7 6 4 3 5 6 8 10 9 9 8 9 10 8 7 8 6
7 7 8 9 9 9 10 9 9 9 9 9 9 6 6 6 5 5 4 1 2 3 3 3 3 2 1 2 3 4 4 3 3 3 3 4 5 5 5 5 5 5 5 3 3 4 4 4 5 4 5 6 6 4 4 6 6 6 5 5 5 4 4 5 6 6 6 5 6 4 4 4 5 7 7 8 8 8 8 9 9 8 7 6 4
6 7 7 7 7 6 6 7 7 8 9 8 8 10 9 7 5 3 3 4 2 1 2 3 3 3 4 3 2 3 3 3 4 4 3 3 4 4 5 4 4 2 1 2 3 2 4 2 2 4 6 6 5 4 4 4 5 6 6 5 4 4 4 5 5 6 6 6 6 5 4 4 4 9 7 7 7 6 6 8 9 10 8 6 6
7 7 7 6 5 4 4 4 4 3 4 4 5 6 6 5 6 5 6 4 3 3 2 1 1 2 3 3 4 4 4 4 3 3 3 3 2 1 1 2 3 3 3 2 2 3 3 2 3 4 5 4 5 4 3 3 4 5 6 5 4 4 5 5 5 5 5 5 5 5 5 5 5 6 6 7 7 7 6 6 6 4 3 3 4
9 11 10 9 8 8 8 8 8 5 4 7 8 7 5 8 8 9 9 8 7 5 5 3 2 3 2 2 2 2 3 3 1 1 2 3 3 3 3 3 4 5 5 4 3 2 2 3 3 3 3 4 4 7 5 4 5 6 5 4 2 1 2 3 4 4 5 5 5 5 5 6 6 6 5 8 8 7 7 6 6 4 3 3 3
5 6 7 8 8 7 7 7 7 8 8 7 6 6 6 6 4 7 6 6 7 8 9 8 7 4 1 1 1 1 2 1 2 2 3 3 4 5 6 4 4 4 3 5 3 4 4 4 1 1 1 2 2 3 3 3 1 3 4 3 2 2 1 2 4 5 4 3 3 4 5 5 6 6 5 8 7 7 7 7 6 5 4 3 3
4 4 4 4 3 4 4 3 5 5 7 7 6 5 5 6 7 4 4 3 3 3 3 5 5 5 5 2 0 0 1 3 3 4 4 5 5 4 4 3 6 4 5 5 5 5 4 5 5 4 5 4 4 5 5 4 2 5 4 3 5 5 5 5 5 5 5 5 4 1 3 4 5 4 6 9 9 9 7 7 7 5 3 3 3
3 4 4 5 5 5 5 5 5 5 5 6 6 6 5 5 5 4 5 5 4 4 2 1 4 4 4 3 2 2 2 3 3 5 5 4 3 4 5 4 7 6 6 5 6 6 4 3 4 3 1 1 2 5 6 3 6 6 4 4 4 5 5 5 5 6 5 6 7 10 6 6 6 5 7 9 9 8 6 6 6 6 5 5 3
4 3 4 5 5 4 4 5 5 6 7 5 5 5 5 5 5 4 4 4 5 5 4 3 4 3 3 1 2 2 3 3 4 3 2 3 4 5 3 3 3 5 5 6 5 6 4 3 2 2 3 4 2 3 5 2 5 7 5 5 5 5 6 5 5 6 6 5 6 7 9 7 6 6 9 8 8 7 7 6 5 5 4 4 2
5 4 2 2 2 4 4 5 4 4 5 5 5 4 4 4 5 4 4 5 5 5 7 5 4 6 6 4 4 3 4 4 5 3 3 4 2 2 3 5 4 5 6 5 5 6 6 4 3 4 4 4 4 4 4 1 3 6 7 6 5 6 6 5 5 5 6 6 6 6 7 10 11 10 10 9 8 8 7 5 5 4 4 3 2
6 7 7 6 5 4 4 4 4 4 4 4 4 3 4 4 4 5 5 6 6 6 5 6 5 5 6 6 4 4 5 4 5 4 4 3 4 5 4 3 5 4 4 4 4 5 6 5 4 4 4 3 2 3 4 2 5 5 8 7 5 6 7 7 6 6 5 6 5 6 4 7 11 11 11 11 10 9 7 5 5 4 2 4 3
4 6 6 6 7 6 6 6 5 4 4 3 2 3 4 4 3 5 6 4 4 5 5 6 6 6 6 6 5 5 4 5 5 4 5 5 3 3 4 5 5 5 4 4 3 4 6 5 5 5 3 3 3 5 3 3 3 7 7 7 6 6 8 10 8 6 6 6 5 5 5 6 10 10 10 10 10 9 8 6 6 6 6 5 3
9 10 9 7 7 7 7 7 6 5 4 3 2 4 5 4 4 7 6 5 5 4 4 5 5 6 6 6 5 5 6 4 4 6 6 7 6 5 5 5 6 5 5 5 4 4 5 4 4 4 4 3 3 4 5 4 4 6 7 7 9 9 7 6 9 8 7 7 5 5 5 7 9 9 9 9 8 8 6 4 5 5 5 5 3
4 4 6 7 7 7 9 9 9 8 6 5 3 5 5 5 7 7 4 4 5 6 4 3 4 5 5 6 6 7 6 5 5 6 6 7 6 5 6 7 7 7 6 6 4 4 4 4 4 2 3 3 3 5 5 6 6 9 8 9 9 8 8 5 6 7 7 6 6 5 5 8 8 8 8 7 7 7 5 6 7 7 6 4 3
7 7 6 5 6 7 7 8 7 8 8 8 6 5 6 6 6 4 4 5 5 5 6 8 7 4 4 5 5 6 6 6 6 5 6 6 6 6 6 4 6 6 7 7 5 5 6 5 4 4 2 1 2 4 6 7 10 10 11 12 12 12 11 12 9 5 6 5 6 8 8 8 9 9 10 9 8 9 10 9 9 7 5 4 4
5 6 7 8 8 8 7 8 8 5 6 5 7 5 7 9 7 7 6 5 5 5 6 7 7 7 7 4 3 4 4 4 5 6 7 7 9 8 8 8 7 7 7 7 6 6 5 5 5 4 3 1 1 3 6 6 6 8 8 11 13 13 12 12 11 8 9 10 10 10 11 11 9 7 7 6 6 5 7 8 8 6 4 4 3
9 7 6 8 6 8 9 9 11 7 6 7 6 7 7 7 8 8 9 8 7 6 6 6 7 7 6 5 4 4 3 3 3 4 5 6 6 7 7 8 8 8 7 6 7 7 6 5 5 5 4 3 2 3 5 5 6 7 7 8 9 9 12 12 9 7 7 7 8 7 7 9 8 10 9 6 6 5 6 5 4 4 3 2 2
7 8 8 8 7 8 10 10 11 9 6 7 7 7 7 7 7 7 7 8 9 9 8 7 7 6 6 6 5 5 4 4 3 4 5 5 4 6 7 9 9 9 8 8 8 7 7 7 6 6 5 5 5 4 5 6 6 7 6 6 6 7 7 7 8 7 6 6 7 7 8 6 6 6 6 5 4 4 3 2 3 3 3 3 2
10 9 7 8 8 11 11 11 12 9 8 8 9 9 7 7 7 6 5 6 8 8 8 8 7 5 6 5 5 5 4 4 3 3 2 2 4 6 7 4 3 4 9 11 9 8 8 8 8 9 8 6 5 7 7 4 7 9 10 8 7 7 7 6 7 11 8 6 6 7 4 5 4 4 3 3 4 4 3 2 3 4 3 3 3
8 7 7 9 10 9 11 11 11 9 9 10 10 10 9 8 7 6 6 7 8 8 8 9 7 7 6 4 4 4 3 2 3 3 3 1 2 1 3 4 5 4 6 4 9 8 10 9 9 8 8 9 10 8 9 10 9 9 9 10 10 10 10 10 10 10 8 6 4 4 4 4 3 3 3 3 2 2 2 3 3 3 3 3 3
9 10 10 9 10 11 11 11 10 9 9 9 10 10 10 10 8 8 8 9 9 8 8 8 8 8 8 6 5 4 4 4 4 4 4 4 2 1 3 3 2 4 5 7 7 5 11 13 12 8 4 5 8 12 15 12 11 10 11 12 12 12 14 14 13 9 4 4 4 5 3 3 3 2 2 1 0 1 2 2 3 3 3 4 3
Wind_Direction
156 129 138 142 154 158 174 162 142 143 148 158 146 152 162 154 140 149 170 154 139 135 123 127 112 91 67 73 102 72 96 76 57 24 39 32 81 79 114 117 119 134 147 145 156 164 157 165 166 203 246 293 204 152 102 107 83 163 133 3 89 81 58 31 50 86 113 58 3 20 40 24 359 13 38 14 44 21 5 61 51 59 360 266 280
119 104 121 126 117 154 181 174 143 137 174 162 172 169 162 154 160 153 168 155 147 146 143 124 134 154 147 152 127 100 92 91 84 42 65 69 74 107 130 135 141 150 146 154 145 137 142 143 163 198 225 276 332 41 110 141 142 169 161 100 49 118 123 160 161 66 44 148 130 316 21 4 27 12 3 346 348 13 15 27 49 40 40 3 17
154 153 153 151 142 165 166 171 179 152 158 171 167 144 146 159 155 157 161 147 145 144 144 139 115 104 113 138 119 92 54 74 95 51 64 79 62 55 77 129 154 163 166 161 149 151 138 139 150 167 203 206 180 112 94 118 156 175 155 127 79 45 95 260 190 229 135 117 56 94 197 53 311 357 336 354 356 328 330 39 38 37 29 43 9
194 179 174 168 162 168 168 166 166 133 148 144 151 160 156 157 154 150 146 145 144 151 127 107 102 97 87 100 81 99 120 86 67 49 52 58 43 45 47 56 108 148 168 158 133 135 142 143 154 174 186 204 162 129 122 120 130 160 127 134 146 128 150 167 25 99 131 136 95 77 187 127 326 276 340 307 322 316 321 351 47 62 47 71 117
198 180 177 177 173 178 174 168 155 161 168 162 160 166 165 160 160 155 155 156 151 141 129 123 108 85 86 75 80 78 54 49 50 33 18 45 52 34 16 29 32 66 76 121 132 123 131 149 147 156 152 134 100 98 121 137 98 81 132 153 192 166 169 157 97 288 126 260 138 118 73 10 216 217 18 302 315 220 296 327 5 344 53 61 77
205 199 189 181 169 154 167 167 167 177 180 172 158 161 153 156 151 144 143 142 144 142 139 133 131 130 119 113 99 86 96 88 108 122 73 50 50 342 27 34 32 52 65 82 113 131 131 115 128 133 129 122 124 116 117 110 132 155 178 172 157 146 139 141 145 115 78 30 67 129 171 173 176 172 127 157 201 50 25 350 3 4 1 326 285
196 164 166 175 180 171 180 183 180 176 182 150 154 169 166 163 158 153 149 139 142 146 147 132 130 139 142 145 147 152 144 211 197 163 139 124 90 62 43 32 39 47 60 75 106 106 98 97 109 118 116 107 116 105 104 118 135 132 154 197 190 144 141 130 174 122 86 85 71 55 55 49 70 125 190 81 100 53 18 12 356 349 337 343 333
187 186 187 187 187 188 189 186 180 171 160 155 170 174 169 158 136 122 121 136 152 151 156 151 138 135 124 122 136 142 145 154 157 129 117 121 84 60 70 47 36 45 60 68 74 101 118 110 113 109 98 85 81 74 82 88 104 65 65 61 72 99 173 154 156 141 200 159 77 66 63 44 30 73 101 130 149 112 54 344 15 7 29 25 4
184 189 188 188 192 196 180 179 165 156 170 176 152 58 41 38 56 76 93 130 149 154 148 161 139 140 131 125 105 85 112 117 111 75 83 67 80 39 63 65 61 50 52 60 54 61 85 106 104 97 94 80 83 80 68 65 81 98 91 86 94 77 112 159 136 138 161 165 134 111 70 45 18 39 39 55 97 108 79 54 31 306 48 36 18
191 199 193 193 193 180 159 136 166 182 121 72 63 64 53 20 296 144 149 146 147 142 147 143 122 116 111 116 123 126 117 95 94 94 74 72 83 50 57 59 59 68 52 51 58 50 64 74 79 82 85 88 86 93 89 73 67 76 83 103 110 97 45 79 102 123 113 97 83 97 102 54 26 31 28 17 51 57 119 115 19 26 62 22 25
183 187 192 185 163 155 149 167 162 104 87 96 104 122 171 193 179 197 172 137 132 146 159 130 105 109 126 138 142 141 141 135 123 104 98 82 95 68 60 52 54 58 54 55 60 53 76 70 80 83 76 83 88 89 92 101 90 90 83 79 73 89 88 88 84 78 93 83 67 67 102 142 142 109 12 304 109 113 84 58 64 356 58 79 36
171 168 169 155 137 142 144 154 143 117 115 124 142 170 190 172 169 171 107 91 92 109 111 118 122 121 134 142 145 153 151 146 144 154 143 128 133 107 64 67 45 44 44 60 52 43 74 70 69 75 84 91 93 104 108 110 114 103 92 93 91 83 89 89 87 88 87 84 67 71 77 78 60 106 178 103 87 107 117 135 136 208 58 45 351
169 157 154 157 161 161 165 157 123 133 150 146 162 183 188 181 173 165 143 91 63 56 160 152 149 150 152 151 150 148 141 136 145 149 162 140 136 108 96 91 63 63 27 48 32 21 33 86 86 92 93 97 114 105 107 110 111 104 98 90 95 100 111 107 96 94 98 92 96 79 93 80 87 113 114 108 79 93 123 132 98 37 151 65 8
78 48 6 329 177 163 147 131 131 149 156 158 171 185 191 189 176 101 74 88 105 95 349 306 166 156 155 150 150 149 148 146 152 156 175 145 133 128 129 132 107 100 59 28 352 350 351 8 86 93 104 120 127 126 127 127 116 109 111 106 104 121 111 99 106 108 93 102 106 87 69 75 73 75 93 90 106 92 82 119 133 53 61 61 2
86 88 80 348 333 94 108 122 148 168 167 171 180 190 195 143 76 92 85 101 139 143 135 107 359 349 135 146 152 154 152 154 149 144 154 138 124 122 124 117 115 119 92 1 27 21 5 346 57 98 113 123 118 113 110 110 114 110 108 114 113 130 108 108 108 108 103 99 89 100 98 77 76 71 82 78 93 87 107 148 134 116 58 38 51
91 102 100 57 305 303 162 154 170 169 171 181 191 190 153 92 108 104 130 152 100 146 182 171 142 105 216 171 160 150 141 129 124 119 140 135 137 134 144 143 143 128 105 68 36 56 24 1 1 26 8 12 43 82 101 105 113 109 107 112 118 144 109 102 109 99 103 104 107 108 89 85 76 75 75 83 78 101 100 97 97 103 128 106 26
30 339 118 193 233 256 234 154 156 158 171 191 198 155 91 97 102 109 120 276 213 194 170 96 127 151 169 166 146 140 146 156 162 152 146 142 118 109 134 150 132 125 116 107 87 66 56 50 18 16 16 8 13 14 25 51 53 75 94 92 93 58 87 97 97 93 96 97 83 85 98 97 84 81 73 78 92 90 86 91 82 110 140 126 129
92 299 337 77 221 252 205 191 176 171 175 183 175 97 105 107 112 129 186 215 216 225 186 167 163 156 136 151 183 171 158 154 142 143 143 152 140 133 147 136 170 166 147 128 112 109 77 71 70 36 24 31 26 20 25 20 35 51 49 59 52 74 82 64 73 96 88 82 82 72 80 82 78 72 76 70 72 80 76 70 79 84 95 112 151
151 296 296 250 6 359 147 179 191 182 173 171 138 118 121 130 138 165 197 201 190 172 198 220 140 136 160 176 176 166 160 163 165 158 153 198 139 186 188 193 146 145 147 134 126 123 131 122 118 120 107 111 63 59 58 53 53 62 38 56 27 70 91 84 49 95 97 96 94 88 83 85 78 84 77 67 60 75 81 78 72 75 54 101 111
98 159 325 351 16 9 51 142 162 162 146 123 117 116 128 137 147 198 204 173 136 172 192 184 161 160 163 156 158 156 176 194 177 156 160 217 187 177 168 179 194 150 144 135 136 146 152 160 150 146 139 137 134 64 69 78 84 82 82 72 21 63 89 101 88 62 98 102 106 103 105 111 107 95 85 81 81 69 78 79 73 75 70 76 103
126 129 87 44 26 23 35 45 82 99 113 125 132 134 141 154 175 193 196 178 182 198 194 179 138 158 154 167 175 169 167 164 151 158 174 187 199 178 166 149 119 159 149 158 158 142 92 51 41 25 136 181 175 161 61 71 85 97 73 105 80 73 91 53 92 81 72 107 104 103 96 90 111 101 106 98 89 90 80 75 71 77 70 40 89
126 72 51 48 42 45 53 53 58 87 105 115 120 129 144 160 176 188 198 197 175 192 193 170 193 177 186 177 162 158 137 139 158 181 170 181 188 167 140 106 89 73 64 53 64 72 66 44 4 340 333 333 345 155 142 136 138 128 120 114 132 117 113 93 75 112 71 79 119 112 94 74 68 100 107 99 109 104 97 90 60 80 79 63 354
95 76 54 37 62 75 87 93 90 92 103 118 125 137 153 162 171 186 192 210 195 189 180 163 182 198 219 210 159 142 145 165 177 177 162 185 193 146 139 129 125 109 101 117 127 127 127 118 115 143 246 287 292 272 205 186 174 171 173 176 166 163 153 154 157 189 153 75 94 113 129 122 115 94 85 95 93 87 78 87 91 79 88 70 21
78 108 92 53 37 56 65 61 63 59 61 75 111 129 138 152 161 159 168 158 144 157 168 169 181 204 215 209 201 155 173 184 189 176 170 163 160 128 143 135 130 124 122 140 136 140 141 136 140 199 24 337 330 331 306 246 227 203 196 199 187 187 195 187 185 179 168 162 162 146 178 139 114 111 119 112 101 104 99 109 103 95 102 96 66
85 67 57 52 56 70 84 84 84 78 74 78 89 111 120 123 131 139 149 151 147 159 169 175 175 184 191 191 188 177 191 194 190 170 166 157 157 163 158 142 126 112 116 127 164 150 151 173 193 128 64 29 352 349 318 313 283 240 214 205 201 200 203 209 210 200 183 173 170 182 177 160 140 126 140 125 129 112 118 113 108 109 103 102 72
64 47 49 71 37 26 74 83 91 94 110 106 104 109 118 124 133 148 143 139 143 143 158 163 172 173 178 176 179 184 192 193 181 172 170 170 171 156 153 139 125 116 128 160 188 228 39 3 358 37 130 194 202 162 113 294 279 271 261 251 231 213 211 214 224 221 209 195 187 189 178 170 166 155 169 153 146 138 137 127 125 129 126 114 107
20 7 2 358 12 2 358 21 33 60 77 93 102 103 113 122 132 144 147 138 145 143 149 155 166 177 171 171 177 187 182 180 180 178 172 173 160 150 132 124 138 137 147 147 145 164 215 219 220 184 220 262 290 198 178 212 231 245 235 226 223 224 220 214 216 218 217 214 223 208 183 181 182 175 161 166 160 153 149 147 145 144 138 113 104
21 19 13 1 349 349 355 355 3 8 21 62 78 115 130 134 140 147 144 134 138 142 151 149 156 171 178 168 191 185 182 182 168 165 169 147 129 131 139 146 140 140 152 160 155 143 205 255 261 239 233 230 234 264 237 223 242 237 238 233 223 220 224 226 224 221 222 227 215 213 207 195 196 184 168 165 156 154 147 128 144 127 135 114 115
27 16 15 14 6 355 358 0 359 4 10 9 24 43 65 91 117 141 141 144 146 140 147 150 152 177 172 160 181 209 213 163 158 159 147 138 129 137 153 156 137 161 175 173 156 170 193 233 241 236 251 249 244 242 250 235 233 236 228 229 227 235 233 232 229 219 212 223 232 223 219 210 201 188 187 168 166 154 145 135 153 127 114 108 111
25 22 21 20 17 15 11 14 10 9 5 3 3 11 22 32 71 116 131 156 142 148 151 159 178 185 145 179 185 190 201 173 170 163 155 120 120 138 141 125 130 178 192 162 138 131 150 188 226 246 250 255 249 246 244 233 230 229 220 222 220 224 223 224 231 232 228 222 227 226 224 218 210 185 164 169 165 163 162 154 160 148 126 115 107
35 33 33 33 32 26 24 24 18 16 10 8 1 358 359 23 16 11 105 205 139 149 156 167 188 203 161 166 190 206 200 198 202 158 132 129 133 145 150 158 161 174 199 219 167 159 189 199 212 229 237 232 236 236 227 216 226 229 220 210 213 221 214 219 222 225 234 232 233 230 245 205 179 172 170 168 168 159 153 148 153 151 150 144 139
43 43 39 38 35 32 30 26 26 26 24 17 3 357 20 10 7 10 338 357 108 144 158 188 202 182 152 168 181 180 197 202 161 186 177 158 150 157 162 162 165 181 208 183 188 207 210 209 204 213 233 240 243 240 234 226 213 214 211 213 208 213 208 213 219 221 232 231 234 223 209 184 176 175 168 160 165 157 145 144 143 140 119 82 99
38 45 49 48 45 39 41 35 30 27 26 16 14 22 9 347 360 347 18 10 28 81 142 173 196 187 176 180 172 187 219 223 200 181 180 166 164 157 152 155 163 159 155 202 233 208 224 208 206 237 248 251 250 234 230 230 226 220 215 207 224 215 221 231 222 226 225 227 227 216 202 181 174 172 171 156 148 125 101 98 97 89 87 103 95
25 24 23 11 8 36 42 46 53 36 38 20 34 37 16 14 4 14 38 27 49 20 46 5 306 249 234 204 176 170 196 219 213 182 164 142 129 132 117 117 107 113 144 181 306 305 316 286 236 233 244 254 248 242 228 241 242 228 218 193 222 219 234 247 247 244 241 231 223 212 192 184 169 172 168 153 141 131 124 114 98 79 86 78 82
31 26 22 20 9 360 12 9 5 3 11 22 16 11 14 20 22 23 15 9 6 10 26 9 34 18 359 326 295 227 227 240 246 138 122 132 135 111 115 122 126 136 138 149 161 176 243 256 265 249 261 299 330 9 4 336 285 245 198 179 177 223 248 285 288 273 261 241 227 215 195 181 169 172 176 161 145 140 128 116 114 111 77 36 52
39 39 27 31 17 359 352 353 353 3 3 16 9 351 12 5 15 29 15 29 11 16 6 354 1 8 35 334 328 237 151 110 103 100 118 132 142 147 139 140 111 107 110 122 122 125 130 118 118 63 82 313 295 353 16 15 331 244 154 142 137 120 99 39 14 1 344 319 254 199 178 168 174 170 157 153 138 131 123 124 116 102 97 90 71
17 25 21 1 8 31 17 20 16 10 15 0 350 5 10 4 11 1 354 6 42 30 16 356 9 345 331 315 130 257 170 146 137 130 139 144 142 144 135 133 114 125 116 94 82 64 38 52 50 38 45 1 324 335 1 59 89 140 110 97 109 96 81 67 39 16 11 16 18 90 108 127 112 96 116 122 130 133 123 124 112 113 124 126 108
360 354 359 6 358 357 8 25 16 18 10 357 0 5 356 1 343 342 349 339 350 333 324 2 325 328 336 328 304 164 177 174 158 167 173 178 169 146 164 168 135 134 121 134 122 84 39 40 86 94 90 72 321 318 345 53 118 131 116 122 111 103 87 84 67 34 27 31 34 65 84 91 99 102 125 120 127 118 110 110 129 136 135 114 104
359 360 353 340 343 334 346 356 9 8 341 343 349 8 16 349 334 334 337 323 307 295 296 288 286 275 242 202 199 217 203 181 204 227 189 176 179 179 163 149 126 131 139 142 132 113 99 53 40 72 62 89 20 335 350 13 124 133 125 127 118 106 101 90 89 65 39 46 50 51 74 88 94 116 114 114 117 115 118 140 135 115 106 101 110
340 341 343 313 326 3 352 352 345 324 316 321 332 2 11 353 335 345 326 302 286 276 286 288 261 254 254 201 189 176 174 181 207 206 196 195 169 133 146 140 152 150 138 146 154 154 131 93 51 44 46 35 39 356 355 15 138 141 143 137 136 124 128 115 88 89 79 52 52 62 67 89 93 84 75 76 76 92 105 100 96 97 118 114 143
333 330 336 341 339 339 315 296 279 287 300 306 326 359 338 325 330 342 319 302 302 302 293 288 291 289 287 276 244 208 194 196 190 188 178 174 173 164 136 130 114 97 102 94 86 88 89 76 55 49 42 25 41 37 350 40 147 149 153 148 139 126 123 111 100 81 75 85 66 55 50 62 76 77 77 72 71 70 79 84 91 107 97 133 135
336 331 337 339 331 325 323 319 301 286 291 295 304 318 298 295 320 302 279 281 302 303 301 298 291 283 275 271 269 274 244 205 195 159 153 190 186 142 151 135 133 123 108 97 94 86 91 73 45 35 25 5 25 62 39 45 124 144 143 139 129 140 142 122 107 102 107 102 101 101 83 82 86 88 86 83 78 74 72 73 84 109 112 96 84
340 341 342 342 332 326 317 302 299 301 298 278 254 284 289 289 284 269 287 316 313 301 291 289 284 280 278 278 265 243 243 238 193 191 178 190 174 160 153 148 143 140 135 140 129 118 103 85 55 30 17 354 24 53 56 64 68 117 124 130 134 135 142 125 129 132 134 126 109 102 99 86 80 79 79 79 76 70 64 68 84 76 75 82 76
330 326 329 345 337 329 324 321 317 315 309 299 274 279 284 284 275 278 298 305 315 317 306 266 250 255 267 269 271 269 247 233 223 198 190 171 171 172 162 164 161 151 151 141 137 118 110 123 125 83 20 357 359 79 60 72 83 87 94 101 103 109 120 116 118 123 123 119 123 121 112 100 93 89 87 85 75 65 69 60 57 64 67 59 67
334 331 332 339 333 319 314 312 315 318 319 317 317 301 293 289 272 281 297 305 308 314 319 316 305 281 239 234 240 245 257 240 211 197 183 176 164 157 154 172 151 154 156 161 171 166 159 157 138 151 154 356 359 70 84 84 97 99 102 104 104 103 103 105 93 88 100 112 116 113 106 100 100 96 91 85 73 68 69 69 68 67 71 54 49
319 326 333 327 320 317 314 311 309 310 308 314 313 317 302 286 300 306 296 294 298 302 305 301 300 299 294 281 260 265 240 247 251 196 199 183 170 174 168 169 170 169 170 164 169 170 162 157 168 158 152 172 13 92 102 104 101 103 102 108 114 113 108 104 106 108 112 107 104 101 101 95 86 84 78 69 74 73 69 66 61 55 51 48 30
320 316 320 314 315 309 307 307 302 305 306 298 298 294 284 289 295 302 309 308 300 285 280 280 285 291 295 297 286 272 265 239 222 267 231 192 187 175 162 165 174 169 171 171 161 168 164 162 158 164 154 133 108 120 123 115 119 112 115 112 100 95 99 97 92 96 96 94 89 91 93 94 91 81 79 77 70 53 51 36 31 32 31 13 357
306 310 312 308 308 303 303 303 298 300 296 291 287 283 286 292 295 299 307 309 300 286 272 266 268 273 280 287 288 286 273 234 225 198 233 251 209 177 169 170 175 174 165 176 169 172 177 170 163 156 154 146 172 188 181 151 145 129 120 110 103 112 111 119 109 104 105 100 104 101 89 66 67 56 53 35 33 43 50 32 15 9 353 341 332
310 309 310 303 306 303 299 297 295 299 294 289 285 282 275 267 273 284 290 297 291 287 282 272 262 253 263 265 272 279 272 266 228 132 151 198 209 196 205 225 252 197 176 166 177 185 181 178 162 164 164 181 174 195 206 190 161 150 141 133 133 132 129 121 131 128 108 90 93 85 81 69 58 78 63 56 31 26 11 11 4 351 343 331 324
293 295 296 297 297 292 292 293 293 293 290 288 287 284 281 273 267 263 262 267 272 281 285 280 276 264 253 256 268 268 274 229 211 203 157 100 4 255 198 188 228 233 226 206 162 174 183 169 175 186 175 168 193 195 152 164 164 150 140 139 139 140 139 134 137 128 117 109 95 93 91 103 97 87 75 54 24 5 346 340 332 323 319 310 309
306 304 299 294 294 296 291 287 288 288 285 285 283 284 283 278 271 265 259 257 257 261 264 268 270 264 254 240 226 247 255 230 214 194 188 173 152 345 69 63 245 258 228 193 183 177 175 176 165 164 193 109 109 133 153 160 156 149 142 136 136 136 133 133 134 117 87 108 116 108 103 90 93 90 95 83 343 332 307 306 301 303 297 296 293